Location: Napa Soda Springs
(38.3907°N, 122.2794°W)
Time: 13:31:56
(UTC+00:00)

Daily predictions for brighter satellites

Satellite Brightness Start Highest point End
(mag) Time Altitude Azimuth Time Altitude Azimuth Time Altitude Azimuth
ERS-2 4.3 12:06:45 10° SE 12:09:47 25° ENE 12:10:47 22° NE
Nadezhda 4 Rocket 4.0 12:04:03 10° S 12:10:07 75° E 12:16:15 10° N
CZ-4B R/B 4.2 12:08:04 10° ESE 12:10:31 18° ENE 12:12:56 10° NNE
Cosmos 2082 Rocket 2.4 12:09:55 50° SSE 12:11:14 68° ESE 12:16:49 10° NNE
Cosmos 2369 4.3 12:08:18 23° N 12:11:41 53° ENE 12:17:10 10° SE
Lacrosse 5 rocket 3.9 12:18:45 11° NNE 12:18:45 11° NNE 12:19:01 10° NNE
DELTA 2 R/B (1) 4.4 12:19:26 36° S 12:19:26 36° S 12:23:35 10° SE
Cosmos 2180 Rocket 4.3 12:13:32 10° NNW 12:19:44 68° W 12:25:49 10° S
ALOS 3.2 12:22:43 10° NNE 12:27:15 48° E 12:31:45 10° S
BREEZE-M DEB (TANK) 4.4 12:28:32 45° NW 12:30:37 88° NE 12:49:45 10° SE
Cosmos 1697 Rocket 2.5 12:31:55 32° NNW 12:34:42 84° WSW 12:40:21 10° SSE
Abrixas rocket 4.2 12:38:21 22° NE 12:38:21 22° NE 12:40:01 10° E
ISS -1.1 12:41:10 13° N 12:41:10 13° N 12:41:52 10° NNE
COSMOS 2406 4.3 12:41:49 27° NNW 12:41:49 27° NNW 12:45:19 10° N
FENGYUN 3A 3.8 12:36:36 10° NNE 12:42:03 73° ESE 12:47:27 10° S
ATLAS CENTAUR R/B 3.6 12:42:28 10° SSE 12:45:38 23° ESE 12:48:43 10° ENE
ATLAS 3B R/B 2.7 12:44:55 39° W 12:46:55 52° NW 12:53:24 10° NNE
ADEOS 3.5 12:43:25 10° NNE 12:48:40 88° ESE 12:53:53 10° SSW
Cosmos 1400 Rocket 3.3 12:46:18 10° N 12:50:10 57° E 12:53:58 10° SSE
Cosmos 1300 2.7 12:46:34 10° N 12:50:24 77° E 12:54:11 10° S
ADEOS Rocket 2.9 12:45:10 10° S 12:50:26 47° W 12:55:48 10° NNW
Meteor 2-5 Rocket 3.7 12:46:14 10° SSW 12:51:51 61° WNW 12:57:37 10° N
NOSS 8 (A) 4.4 12:57:01 55° NNW 12:57:01 55° NNW 12:59:37 10° NNE
Cosmos 1980 Rocket 2.2 12:52:31 10° NNW 12:58:08 80° ENE 13:03:44 10° SSE
SL-14 R/B 4.0 13:02:57 34° NW 13:02:57 34° NW 13:05:51 10° N
CZ-4B R/B 3.8 12:58:01 10° NNE 13:02:09 88° ESE 13:06:04 10° SSW
Cosmos 2228 3.1 12:59:14 10° NNW 13:03:31 55° W 13:07:47 10° S
Cosmos 1726 Rocket 3.4 12:59:14 10° N 13:03:42 78° W 13:08:09 10° S
Cosmos 1992 Rocket 3.9 12:59:26 10° NNW 13:04:37 66° WSW 13:09:46 10° S
Cosmos 2026 Rocket 4.0 13:00:28 10° S 13:06:50 85° W 13:13:15 10° N
Cosmos 2195 Rocket 4.4 13:06:02 10° SSW 13:12:11 65° W 13:18:19 10° N
CZ-2C R/B 3.7 13:13:08 10° NNW 13:16:07 21° NW 13:16:07 21° NW
Meteor PRIRODA 4.2 13:13:45 10° NNE 13:17:23 59° E 13:21:00 10° S
Meteor 2-10 Rocket 4.3 13:13:06 10° N 13:18:02 53° ENE 13:23:02 10° SSE
Cosmos 614 Rocket 3.8 13:13:29 10° SSW 13:18:37 71° WNW 13:23:44 10° NNE
Cosmos 1606 Rocket 4.0 13:15:53 10° NNW 13:20:01 38° W 13:24:09 10° SSW
Cosmos 1484 Rocket 3.3 13:17:59 10° N 13:21:30 35° WNW 13:24:55 10° SW
Cosmos 1315 Rocket 4.0 13:19:45 10° N 13:23:44 46° ENE 13:27:43 10° SSE
Cosmos 1689 Rocket 2.3 13:22:25 10° SSE 13:25:19 70° ENE 13:28:14 10° N
COSMO-SKYMED 1 2.6 13:23:31 10° SSE 13:27:51 86° ENE 13:32:12 10° NNW
Cosmos 1833 Rocket 4.2 13:29:06 16° WNW 13:29:54 16° NW 13:33:23 10° NNW
Cosmos 2322 Rocket 3.8 13:25:49 10° N 13:30:57 34° ENE 13:36:02 10° SE
Cosmos 2278 3.9 13:25:50 10° NNW 13:31:17 51° WSW 13:36:42 10° S
Uosat 12 SS-18 rocket 4.4 13:26:51 10° SSW 13:31:47 75° ESE 13:36:10 10° NE
METEOR-M 4.3 13:27:47 10° N 13:32:53 47° WNW 13:37:58 10° SW
SAR-Lupe-4 3.8 13:32:33 10° S 13:35:58 44° W 13:39:25 10° NNW
SJ-12 4.0 13:32:05 10° N 13:36:06 56° WNW 13:40:05 10° SSW
Cosmos 1455 3.2 13:34:02 10° N 13:37:49 51° E 13:41:35 10° SSE
SL-19 R/B 4.4 13:37:34 10° N 13:40:03 27° WNW 13:42:39 10° SW
H-2A R/B 3.9 13:36:58 10° NNE 13:41:06 43° E 13:45:03 10° S
Cosmos 1023 Rocket 4.4 13:36:53 10° SSW 13:41:58 81° WNW 13:47:05 10° NNE
CZ-4B R/B 2.7 13:39:52 10° SSW 13:42:36 22° W 13:45:20 10° NW
ERS-2 3.6 13:40:47 10° SW 13:43:17 18° W 13:45:22 12° WNW
deb Chang Zheng 4 4.5 13:41:55 10° NNW 13:45:26 26° WNW 13:48:58 10° SW
Meteor 1-31 Rocket 3.8 13:43:24 10° NNW 13:46:40 26° WNW 13:49:56 10° SW
Meteor 2-19 Rocket 4.4 13:41:50 10° SSW 13:47:54 72° W 13:53:59 10° N
CREW DRAGON DEMO-1 DEB 4.0 13:48:36 10° NW 13:51:27 37° NE 13:54:16 10° ESE
Cosmos 2292 Rocket 2.9 13:49:03 10° S 13:52:07 89° E 13:55:48 10° N
Cosmos 1703 3.6 13:48:39 10° S 13:52:30 68° E 13:56:22 10° NNE
Cosmos 1190 Rocket 4.0 13:49:01 10° SSW 13:54:13 66° WNW 13:59:26 10° NNE
Cosmos 2082 Rocket 3.6 13:52:10 10° W 13:55:50 18° NW 13:59:32 10° N
Cosmos 2058 Rocket 3.9 13:53:39 10° NNW 13:57:34 30° W 14:01:27 10° SSW
PSLV R/B 4.3 13:57:40 10° S 14:01:40 43° W 14:05:42 10° NNW
ALOS 3.7 14:01:21 10° NNW 14:04:15 16° WNW 14:07:07 10° WSW
PSLV R/B 3.9 14:02:35 10° N 14:06:41 69° WNW 14:10:44 10° SSW
CZ-4B R/B 3.8 14:03:07 10° N 14:06:43 29° WNW 14:10:27 10° SW
Cosmos 2098 Rocket 3.8 14:02:05 10° SSW 14:08:03 52° W 14:12:51 10° N
SL-16 R/B 2.3 14:02:32 10° NNW 14:08:14 86° ENE 14:13:54 10° SSE
CZ-4B DEB 4.3 14:04:52 10° NNE 14:10:22 90° W 14:15:50 10° SSW
